Tracking 20621 objects as of 1-Apr-2020
HD Live streaming from Space Station
objects crossing your sky now

TRANSIT 11 DEB

Track TRANSIT 11 DEB now!
10-day predictions


NORAD ID: 11991
Int'l Code: 1966-005H
Perigee: 833.3 km
Apogee: 1,100.9 km
Inclination: 90.2 °
Period: 104.3 minutes
Semi major axis: 7338 km
RCS: 0.2272 m2 (medium)
Launch date: January 28, 1966
Source: United States (US)
Launch site: AIR FORCE WESTERN TEST RANGE (AFWTR)

Note: This is SATELLITE DEBRIS
aabbcc
Your satellite tracking list
Your tracking list is empty




NASA's NSSDC Master Catalog

Two Line Element Set (TLE):
1 11991U 66005H   20090.81974650  .00000170  00000-0  13261-3 0  9993
2 11991  90.2275 294.4161 0182339  75.9166 298.0326 13.81103586708073
Source of the keplerian elements: AFSPC